* Astronomy

Members Login
Username 
 
Password 
    Remember Me  
Post Info TOPIC: Asteroid 2011 BX59


L

Posts: 131433
Date:
RE: Asteroid 2011 BX59
Permalink  
 


Object
Name
Close
Approach
Date
Miss
Distance
(AU)
Miss
Distance
(LD)
Estimated
Diameter*
H
(mag)
Relative
Velocity
(km/s)
(2011 BX59) 2011-Mar-06 0.0730 28.4 32 m - 71 m 24.6 7.89


__________________


L

Posts: 131433
Date:
Permalink  
 

Orbital elements:
2011 BX59 Earth MOID = 0.0704 AU
Epoch 2011 Feb. 8.0 TT = JDT 2455600.5 MPC
M 353.27142 (2000.0) P Q
n 0.19969266 Peri. 219.94011 -0.99455292 -0.09172388
a 2.8988649 Node 314.72091 +0.10417092 -0.89104783
e 0.6381560 Incl. 3.99554 -0.00359247 -0.44454526
P 4.94 H 24.4 G 0.15 U 6

MPEC 2011 - D12


__________________
Page 1 of 1  sorted by
 
Quick Reply

Please log in to post quick replies.



Create your own FREE Forum
Report Abuse
Powered by ActiveBoard